| time (UTC) | temp C | wind direction | speed KPH | gust KPH | rain 1hr cm | rain 24hr cm | rain mn cm | humidity % | barometer mb |
| 20260510192134 | 8 | 315 | 4.8 | 4.8 | 0.00 | 0.00 | 0.00 | 93 | 1015.2 |
| 20260510191133 | 8 | 337 | 8.0 | 8.0 | 0.00 | 0.00 | 0.00 | 96 | 1015.2 |
| 20260510190134 | 8 | 334 | 8.0 | 8.0 | 0.00 | 0.00 | 0.00 | 98 | 1015.2 |
| 20260510185133 | 8 | 348 | 8.0 | 8.0 | 0.00 | 0.00 | 0.00 | 98 | 1015.1 |
| 20260510184134 | 8 | 338 | 8.0 | 8.0 | 0.00 | 0.00 | 0.00 | 98 | 1015.1 |
| 20260510183133 | 8 | 329 | 6.4 | 6.4 | 0.00 | 0.00 | 0.00 | 98 | 1015.2 |
| 20260510182134 | 8 | 341 | 8.0 | 8.0 | 0.00 | 0.00 | 0.00 | 99 | 1015.1 |
| 20260510181133 | 8 | 327 | 6.4 | 6.4 | 0.00 | 0.00 | 0.00 | 99 | 1015.1 |
| 20260510180133 | 8 | 338 | 8.0 | 8.0 | 0.00 | 0.00 | 0.00 | 99 | 1015.0 |
| 20260510175134 | 8 | 352 | 3.2 | 3.2 | 0.00 | 0.00 | 0.00 | 99 | 1014.7 |
| 20260510174133 | 8 | 352 | 3.2 | 3.2 | 0.00 | 0.00 | 0.00 | 99 | 1014.7 |
| 20260510173133 | 8 | 336 | 4.8 | 4.8 | 0.00 | 0.00 | 0.00 | 97 | 1014.9 |
| 20260510172134 | 8 | 329 | 8.0 | 8.0 | 0.00 | 0.00 | 0.00 | 99 | 1014.7 |
| 20260510171133 | 8 | 347 | 3.2 | 3.2 | 0.00 | 0.00 | 0.00 | 97 | 1014.8 |
| 20260510170134 | 8 | 317 | 8.0 | 8.0 | 0.00 | 0.00 | 0.00 | 97 | 1014.9 |
| 20260510165133 | 8 | 323 | 6.4 | 6.4 | 0.00 | 0.00 | 0.00 | 98 | 1014.8 |
| 20260510164134 | 8 | 344 | 8.0 | 8.0 | 0.00 | 0.00 | 0.00 | 98 | 1014.7 |
| 20260510163137 | 8 | 327 | 6.4 | 6.4 | 0.00 | 0.00 | 0.00 | 98 | 1014.8 |
| 20260510162133 | 9 | 324 | 8.0 | 8.0 | 0.00 | 0.00 | 0.00 | 94 | 1014.9 |
| 20260510161134 | 8 | 316 | 6.4 | 6.4 | 0.00 | 0.00 | 0.00 | 95 | 1014.8 |
| 20260510160135 | 9 | 316 | 6.4 | 6.4 | 0.00 | 0.00 | 0.00 | 95 | 1014.7 |
| 20260510155133 | 10 | 282 | 4.8 | 4.8 | 0.00 | 0.00 | 0.00 | 92 | 1014.8 |
| 20260510154134 | 9 | 310 | 3.2 | 3.2 | 0.00 | 0.00 | 0.00 | 96 | 1014.8 |
| 20260510153134 | 8 | 220 | 1.6 | 1.6 | 0.00 | 0.00 | 0.00 | 97 | 1014.7 |
| 20260510152133 | 8 | 329 | 1.6 | 1.6 | 0.00 | 0.00 | 0.00 | 97 | 1014.7 |
| 20260510151133 | 8 | 316 | 6.4 | 6.4 | 0.00 | 0.00 | 0.00 | 96 | 1014.6 |
| 20260510150135 | 8 | 319 | 3.2 | 3.2 | 0.00 | 0.00 | 0.00 | 97 | 1014.6 |
| 20260510145133 | 8 | 336 | 1.6 | 1.6 | 0.00 | 0.00 | 0.00 | 98 | 1014.5 |
| 20260510144134 | 8 | 268 | 1.6 | 1.6 | 0.00 | 0.00 | 0.00 | 99 | 1014.4 |
| 20260510143135 | 8 | 306 | 4.8 | 4.8 | 0.00 | 0.00 | 0.00 | 97 | 1014.2 |
| 20260510142133 | 8 | 208 | 3.2 | 3.2 | 0.00 | 0.00 | 0.00 | 100 | 1014.0 |
| 20260510141135 | 7 | 271 | 1.6 | 1.6 | 0.00 | 0.00 | 0.00 | 99 | 1014.0 |
| 20260510140135 | 7 | 222 | 3.2 | 3.2 | 0.00 | 0.00 | 0.00 | 99 | 1014.0 |
| 20260510135133 | 7 | 153 | 3.2 | 3.2 | 0.00 | 0.00 | 0.00 | 99 | 1013.9 |
| 20260510134133 | 7 | 198 | 4.8 | 4.8 | 0.00 | 0.00 | 0.00 | 99 | 1013.8 |
| 20260510133133 | 7 | 196 | 4.8 | 4.8 | 0.00 | 0.00 | 0.00 | 99 | 1013.8 |
| 20260510132133 | 7 | 177 | 1.6 | 1.6 | 0.00 | 0.00 | 0.00 | 99 | 1013.8 |
| 20260510131134 | 7 | 203 | 3.2 | 3.2 | 0.00 | 0.00 | 0.00 | 99 | 1013.9 |
| 20260510130134 | 7 | 199 | 3.2 | 3.2 | 0.00 | 0.00 | 0.00 | 100 | 1013.8 |
| 20260510125133 | 7 | 268 | 3.2 | 3.2 | 0.00 | 0.00 | 0.00 | 100 | 1013.8 |
| 20260510124134 | 7 | 194 | 1.6 | 1.6 | 0.00 | 0.00 | 0.00 | 100 | 1013.6 |
| 20260510123138 | 7 | 201 | 3.2 | 3.2 | 0.00 | 0.00 | 0.00 | 99 | 1013.6 |
| 20260510122133 | 6 | 208 | 6.4 | 6.4 | 0.00 | 0.00 | 0.00 | 99 | 1013.6 |
| 20260510121134 | 6 | 220 | 3.2 | 3.2 | 0.00 | 0.00 | 0.00 | 99 | 1013.5 |
| 20260510120134 | 6 | 196 | 3.2 | 3.2 | 0.00 | 0.00 | 0.00 | 99 | 1013.4 |
| 20260510115134 | 6 | 181 | 1.6 | 1.6 | 0.00 | 0.00 | 0.00 | 99 | 1013.3 |
| 20260510114134 | 6 | 180 | 4.8 | 4.8 | 0.00 | 0.00 | 0.00 | 98 | 1013.3 |
| 20260510113134 | 5 | 170 | 1.6 | 1.6 | 0.00 | 0.00 | 0.00 | 98 | 1013.4 |
| 20260510112133 | 5 | 156 | 3.2 | 3.2 | 0.00 | 0.00 | 0.00 | 98 | 1013.3 |
| 20260510111134 | 5 | 188 | 3.2 | 3.2 | 0.00 | 0.00 | 0.00 | 98 | 1013.2 |
| 20260510110133 | 5 | 268 | 3.2 | 3.2 | 0.00 | 0.00 | 0.00 | 98 | 1013.1 |
| 20260510105134 | 5 | 258 | 3.2 | 3.2 | 0.00 | 0.00 | 0.00 | 98 | 1013.0 |
| 20260510104133 | 5 | 40 | 1.6 | 1.6 | 0.00 | 0.00 | 0.00 | 98 | 1012.8 |
| 20260510103134 | 5 | 344 | 3.2 | 3.2 | 0.00 | 0.00 | 0.00 | 98 | 1012.6 |
| 20260510102134 | 5 | 262 | 3.2 | 3.2 | 0.00 | 0.00 | 0.00 | 98 | 1012.4 |
| 20260510101134 | 5 | 272 | 3.2 | 3.2 | 0.00 | 0.00 | 0.00 | 98 | 1012.4 |
| 20260510100133 | 5 | 4 | 1.6 | 1.6 | 0.00 | 0.00 | 0.00 | 98 | 1012.1 |
| 20260510095134 | 5 | 281 | 4.8 | 4.8 | 0.00 | 0.00 | 0.00 | 98 | 1012.2 |
| 20260510094134 | 5 | 177 | 3.2 | 3.2 | 0.00 | 0.00 | 0.00 | 98 | 1012.1 |
| 20260510093134 | 5 | 261 | 1.6 | 1.6 | 0.00 | 0.00 | 0.00 | 98 | 1011.9 |
| 20260510092133 | 5 | 91 | 3.2 | 3.2 | 0.00 | 0.00 | 0.00 | 98 | 1011.8 |
| 20260510091134 | 5 | 281 | 1.6 | 1.6 | 0.00 | 0.00 | 0.00 | 98 | 1011.7 |
| 20260510090133 | 5 | 347 | 3.2 | 3.2 | 0.00 | 0.00 | 0.00 | 98 | 1011.7 |
| 20260510085533 | 5 | 323 | 1.6 | 1.6 | 0.00 | 0.00 | 0.00 | 98 | 1011.6 |
| 20260510085133 | 5 | 323 | 1.6 | 1.6 | 0.00 | 0.00 | 0.00 | 98 | 1011.6 |
| 20260510084133 | 5 | 312 | 1.6 | 1.6 | 0.00 | 0.00 | 0.00 | 98 | 1011.7 |
| 20260510083133 | 5 | 279 | 1.6 | 1.6 | 0.00 | 0.00 | 0.00 | 98 | 1011.8 |
| 20260510082133 | 5 | 330 | 3.2 | 3.2 | 0.00 | 0.00 | 0.00 | 98 | 1011.7 |
| 20260510081134 | 5 | 309 | 8.0 | 8.0 | 0.00 | 0.00 | 0.00 | 98 | 1012.0 |
| 20260510080134 | 5 | 288 | 6.4 | 6.4 | 0.00 | 0.00 | 0.00 | 98 | 1012.1 |
| 20260510075134 | 5 | 286 | 4.8 | 4.8 | 0.00 | 0.00 | 0.00 | 98 | 1012.3 |
| 20260510074133 | 6 | 292 | 8.0 | 8.0 | 0.00 | 0.00 | 0.00 | 98 | 1012.2 |
| 20260510073134 | 6 | 316 | 4.8 | 4.8 | 0.00 | 0.00 | 0.00 | 98 | 1012.3 |
| 20260510072134 | 6 | 296 | 6.4 | 6.4 | 0.00 | 0.00 | 0.00 | 98 | 1012.2 |
| 20260510071134 | 6 | 303 | 6.4 | 6.4 | 0.00 | 0.00 | 0.00 | 98 | 1012.1 |
| 20260510070133 | 6 | 286 | 8.0 | 8.0 | 0.00 | 0.00 | 0.00 | 98 | 1012.0 |
| 20260510065134 | 6 | 292 | 4.8 | 4.8 | 0.00 | 0.00 | 0.00 | 98 | 1012.1 |
| 20260510064134 | 5 | 225 | 4.8 | 4.8 | 0.00 | 0.00 | 0.00 | 98 | 1011.8 |
| 20260510063134 | 5 | 250 | 6.4 | 6.4 | 0.00 | 0.00 | 0.00 | 98 | 1011.8 |
| 20260510062134 | 5 | 209 | 4.8 | 4.8 | 0.00 | 0.00 | 0.00 | 98 | 1011.8 |
| 20260510061243 | 5 | 191 | 4.8 | 4.8 | 0.00 | 0.00 | 0.00 | 98 | 1011.9 |
| 20260510061133 | 5 | 191 | 4.8 | 4.8 | 0.00 | 0.00 | 0.00 | 98 | 1011.9 |
| 20260510060133 | 5 | 209 | 4.8 | 4.8 | 0.00 | 0.00 | 0.00 | 98 | 1011.9 |
| 20260510055134 | 5 | 164 | 6.4 | 6.4 | 0.00 | 0.00 | 0.00 | 98 | 1012.0 |
| 20260510054134 | 5 | 191 | 4.8 | 4.8 | 0.00 | 0.00 | 0.00 | 98 | 1012.1 |
| 20260510053133 | 5 | 175 | 8.0 | 8.0 | 0.00 | 0.00 | 0.00 | 98 | 1012.0 |
| 20260510052134 | 5 | 172 | 4.8 | 4.8 | 0.00 | 0.00 | 0.00 | 98 | 1011.9 |
| 20260510051133 | 5 | 177 | 6.4 | 6.4 | 0.00 | 0.00 | 0.00 | 98 | 1012.0 |
| 20260510050134 | 5 | 170 | 8.0 | 8.0 | 0.00 | 0.00 | 0.00 | 98 | 1012.1 |
| 20260510045134 | 5 | 180 | 6.4 | 6.4 | 0.00 | 0.00 | 0.00 | 98 | 1012.1 |
| 20260510044134 | 5 | 182 | 6.4 | 6.4 | 0.00 | 0.00 | 0.00 | 98 | 1012.0 |
| 20260510043133 | 5 | 188 | 4.8 | 4.8 | 0.00 | 0.00 | 0.00 | 98 | 1012.1 |
| 20260510042133 | 5 | 185 | 4.8 | 4.8 | 0.00 | 0.00 | 0.00 | 98 | 1012.2 |
| 20260510041135 | 5 | 208 | 4.8 | 4.8 | 0.00 | 0.00 | 0.00 | 98 | 1012.2 |
| 20260510040133 | 5 | 192 | 4.8 | 4.8 | 0.00 | 0.00 | 0.00 | 98 | 1012.1 |
| 20260510035134 | 5 | 199 | 3.2 | 3.2 | 0.00 | 0.00 | 0.00 | 98 | 1012.1 |
| 20260510034134 | 5 | 189 | 4.8 | 4.8 | 0.00 | 0.00 | 0.00 | 98 | 1012.1 |
| 20260510033133 | 5 | 187 | 3.2 | 3.2 | 0.00 | 0.00 | 0.00 | 98 | 1012.1 |
| 20260510032133 | 5 | 184 | 3.2 | 3.2 | 0.00 | 0.00 | 0.00 | 98 | 1012.3 |
| 20260510031134 | 5 | 208 | 1.6 | 1.6 | 0.00 | 0.00 | 0.00 | 98 | 1012.1 |
| 20260510030135 | 5 | 203 | 3.2 | 3.2 | 0.00 | 0.00 | 0.00 | 98 | 1012.1 |
| 20260510025133 | 5 | 191 | 3.2 | 3.2 | 0.00 | 0.00 | 0.00 | 98 | 1012.1 |
| 20260510024134 | 5 | 191 | 3.2 | 3.2 | 0.00 | 0.00 | 0.00 | 98 | 1012.1 |
| 20260510023133 | 5 | 185 | 8.0 | 8.0 | 0.00 | 0.00 | 0.00 | 98 | 1012.0 |
| 20260510022133 | 5 | 188 | 6.4 | 6.4 | 0.00 | 0.00 | 0.00 | 98 | 1012.0 |
| 20260510021133 | 5 | 167 | 9.7 | 9.7 | 0.00 | 0.00 | 0.00 | 98 | 1011.9 |
| 20260510020133 | 5 | 168 | 9.7 | 9.7 | 0.00 | 0.00 | 0.00 | 98 | 1012.0 |
| 20260510015133 | 5 | 172 | 9.7 | 9.7 | 0.00 | 0.00 | 0.00 | 98 | 1012.2 |
| 20260510014134 | 5 | 180 | 8.0 | 8.0 | 0.00 | 0.00 | 0.00 | 98 | 1012.2 |
| 20260510013134 | 5 | 177 | 8.0 | 8.0 | 0.00 | 0.00 | 0.00 | 98 | 1012.2 |
| 20260510012133 | 5 | 175 | 8.0 | 8.0 | 0.00 | 0.00 | 0.00 | 98 | 1012.2 |
| 20260510011134 | 5 | 172 | 8.0 | 8.0 | 0.00 | 0.00 | 0.00 | 98 | 1012.1 |
| 20260510010133 | 5 | 194 | 4.8 | 4.8 | 0.00 | 0.00 | 0.00 | 98 | 1012.0 |
| 20260510005133 | 5 | 180 | 8.0 | 8.0 | 0.00 | 0.00 | 0.00 | 98 | 1011.9 |
| 20260510004133 | 5 | 181 | 6.4 | 6.4 | 0.00 | 0.00 | 0.00 | 98 | 1011.7 |
| 20260510003134 | 5 | 187 | 4.8 | 4.8 | 0.00 | 0.00 | 0.00 | 98 | 1011.7 |
| 20260510002134 | 5 | 181 | 6.4 | 6.4 | 0.00 | 0.00 | 0.00 | 98 | 1011.5 |
| 20260510001134 | 5 | 177 | 8.0 | 8.0 | 0.00 | 0.00 | 0.00 | 98 | 1011.5 |
| 20260510000133 | 5 | 180 | 6.4 | 6.4 | 0.00 | 0.00 | 0.00 | 98 | 1011.4 |
| 20260509235133 | 5 | 180 | 6.4 | 6.4 | 0.00 | 0.00 | 0.00 | 98 | 1011.4 |
| 20260509234133 | 5 | 181 | 6.4 | 6.4 | 0.00 | 0.00 | 0.00 | 98 | 1011.3 |
| 20260509233133 | 5 | 172 | 6.4 | 6.4 | 0.00 | 0.00 | 0.00 | 98 | 1011.3 |
| 20260509232133 | 5 | 191 | 6.4 | 6.4 | 0.00 | 0.00 | 0.00 | 98 | 1011.3 |
| 20260509231134 | 5 | 189 | 6.4 | 6.4 | 0.00 | 0.00 | 0.00 | 98 | 1011.3 |
| 20260509230133 | 5 | 177 | 4.8 | 4.8 | 0.00 | 0.00 | 0.00 | 98 | 1011.4 |
| 20260509225133 | 5 | 201 | 4.8 | 4.8 | 0.00 | 0.00 | 0.00 | 98 | 1011.3 |
| 20260509224134 | 5 | 174 | 3.2 | 3.2 | 0.00 | 0.00 | 0.00 | 98 | 1011.4 |
| 20260509223134 | 5 | 191 | 4.8 | 4.8 | 0.00 | 0.00 | 0.00 | 99 | 1011.3 |
| 20260509222134 | 5 | 195 | 4.8 | 4.8 | 0.00 | 0.00 | 0.00 | 99 | 1011.3 |
| 20260509221134 | 5 | 196 | 6.4 | 6.4 | 0.00 | 0.00 | 0.00 | 99 | 1011.2 |
| 20260509220134 | 5 | 192 | 4.8 | 4.8 | 0.00 | 0.00 | 0.00 | 99 | 1011.2 |
| 20260509215133 | 5 | 178 | 4.8 | 4.8 | 0.00 | 0.00 | 0.00 | 99 | 1011.2 |
| 20260509214133 | 4 | 199 | 6.4 | 6.4 | 0.00 | 0.00 | 0.00 | 99 | 1011.2 |
| 20260509213134 | 4 | 205 | 6.4 | 6.4 | 0.00 | 0.00 | 0.00 | 99 | 1011.4 |
| 20260509212133 | 4 | 191 | 8.0 | 8.0 | 0.00 | 0.00 | 0.00 | 99 | 1011.3 |
| 20260509211134 | 4 | 177 | 8.0 | 8.0 | 0.00 | 0.00 | 0.00 | 99 | 1011.5 |
| 20260509210134 | 4 | 184 | 9.7 | 9.7 | 0.00 | 0.00 | 0.00 | 99 | 1011.6 |
| 20260509205134 | 4 | 177 | 6.4 | 6.4 | 0.00 | 0.00 | 0.00 | 99 | 1011.8 |
| 20260509204134 | 5 | 192 | 8.0 | 8.0 | 0.00 | 0.00 | 0.00 | 99 | 1011.7 |
| 20260509203133 | 5 | 192 | 11.3 | 11.3 | 0.00 | 0.00 | 0.00 | 99 | 1011.8 |
| 20260509202134 | 4 | 225 | 6.4 | 6.4 | 0.00 | 0.00 | 0.00 | 99 | 1011.9 |
| 20260509201133 | 4 | 192 | 8.0 | 8.0 | 0.00 | 0.00 | 0.00 | 99 | 1012.0 |
| 20260509200134 | 4 | 189 | 8.0 | 8.0 | 0.00 | 0.00 | 0.00 | 99 | 1012.0 |
| 20260509195134 | 3 | 192 | 6.4 | 6.4 | 0.00 | 0.00 | 0.00 | 99 | 1012.0 |
| 20260509194133 | 3 | 196 | 8.0 | 8.0 | 0.00 | 0.00 | 0.00 | 99 | 1012.1 |
| 20260509193134 | 3 | 194 | 8.0 | 8.0 | 0.00 | 0.00 | 0.00 | 99 | 1012.0 |